,,PA_Meas_PMT16A,,PR_Meas_QMR101_102,,RH_Meas_QMH101,,SR_Meas_QMS101,,TA_Meas_QMH101,,GenWind,,GenWind,
time,status,PA,status,PR,status,RH,status,SR,status,TA,status,DirAvg,status,SpdAvg,
2012-06-18, 00:00:04,VALID,918.159,VALID,0,VALID,96.0322,VALID,0,VALID,20.0148,VALID,63,VALID,0,
2012-06-18, 00:01:04,VALID,918.168,VALID,0,VALID,96.0474,VALID,0,VALID,19.9968,VALID,63,VALID,0.00195313,
2012-06-18, 00:02:04,VALID,918.17,VALID,0,VALID,95.9712,VALID,0,VALID,19.9578,VALID,63,VALID,0,
2012-06-18, 00:03:04,VALID,918.185,VALID,0,VALID,95.7501,VALID,0,VALID,19.8408,VALID,63,VALID,0,
2012-06-18, 00:04:04,VALID,918.188,VALID,0,VALID,95.7425,VALID,0,VALID,19.7823,VALID,63,VALID,0,
2012-06-18, 00:05:04,VALID,918.183,VALID,0,VALID,96.0017,VALID,0,VALID,19.7628,VALID,63,VALID,0,
2012-06-18, 00:06:04,VALID,918.153,VALID,0,VALID,96.1923,VALID,0,VALID,19.8408,VALID,63,VALID,0,
2012-06-18, 00:07:04,VALID,918.171,VALID,0,VALID,96.3981,VALID,0,VALID,19.9968,VALID,63,VALID,0,
2012-06-18, 00:08:04,VALID,918.136,VALID,0,VALID,96.5353,VALID,0,VALID,20.0749,VALID,63,VALID,0,
2012-06-18, 00:09:04,VALID,918.13,VALID,0,VALID,96.4286,VALID,0,VALID,20.0733,VALID,63,VALID,0,
2012-06-18, 00:10:04,VALID,918.126,VALID,0,VALID,96.4286,VALID,0,VALID,20.0538,VALID,63,VALID,0.780078,
2012-06-18, 00:11:04,VALID,918.106,VALID,0,VALID,96.5811,VALID,0.107441,VALID,20.0928,VALID,63,VALID,0.695703,
2012-06-18, 00:12:04,VALID,918.101,VALID,0,VALID,96.4896,VALID,0,VALID,20.1123,VALID,63,VALID,0.449609,
2012-06-18, 00:13:04,VALID,918.086,VALID,0,VALID,96.5429,VALID,0.107441,VALID,20.1123,VALID,63,VALID,0.371875,
2012-06-18, 00:14:04,VALID,918.116,VALID,0,VALID,96.5201,VALID,0,VALID,20.0928,VALID,63,VALID,0.195703,
2012-06-18, 00:15:04,VALID,918.101,VALID,0,VALID,96.4667,VALID,0,VALID,20.0523,VALID,63,VALID,0,
2012-06-18, 00:16:04,VALID,918.076,VALID,0,VALID,96.4896,VALID,0,VALID,20.0538,VALID,63,VALID,0,
2012-06-18, 00:17:04,VALID,918.057,VALID,0,VALID,96.5048,VALID,0.107441,VALID,20.0343,VALID,63,VALID,0,
2012-06-18, 00:18:04,VALID,918.058,VALID,0,VALID,96.5506,VALID,0,VALID,20.0538,VALID,63,VALID,0,
2012-06-18, 00:19:04,VALID,918.06,VALID,0,VALID,96.5201,VALID,0.107441,VALID,20.0343,VALID,63,VALID,0,
2012-06-18, 00:20:04,VALID,918.027,VALID,0,VALID,96.4896,VALID,0.107441,VALID,20.0148,VALID,63,VALID,0,
2012-06-18, 00:21:04,VALID,918.037,VALID,0,VALID,96.5506,VALID,0,VALID,20.0553,VALID,63,VALID,0,
2012-06-18, 00:22:04,VALID,918.046,VALID,0,VALID,96.5658,VALID,0,VALID,20.0749,VALID,63,VALID,0,
2012-06-18, 00:23:04,VALID,918.036,VALID,0,VALID,96.5811,VALID,0,VALID,20.1123,VALID,63,VALID,0.264844,
2012-06-18, 00:24:04,VALID,918.043,VALID,0,VALID,96.5582,VALID,0,VALID,20.1334,VALID,63,VALID,0.308203,
2012-06-18, 00:25:04,VALID,918.026,VALID,0,VALID,96.5506,VALID,0,VALID,20.1334,VALID,63,VALID,0.00234375,
2012-06-18, 00:26:04,VALID,918.028,VALID,0,VALID,96.5506,VALID,0,VALID,20.1724,VALID,63,VALID,0.00351562,
2012-06-18, 00:27:04,VALID,918.04,VALID,0,VALID,96.5658,VALID,0,VALID,20.2114,VALID,63,VALID,0.236719,
2012-06-18, 00:28:04,VALID,918.027,VALID,0,VALID,96.5353,VALID,0,VALID,20.2309,VALID,63,VALID,0.459766,
2012-06-18, 00:29:04,VALID,918.002,VALID,0,VALID,96.5048,VALID,0,VALID,20.2504,VALID,63,VALID,0.503125,
2012-06-18, 00:30:04,VALID,917.985,VALID,0,VALID,96.4743,VALID,0,VALID,20.2489,VALID,63,VALID,0.482031,
2012-06-18, 00:31:04,VALID,918.006,VALID,0,VALID,96.4972,VALID,0,VALID,20.2894,VALID,63,VALID,0.696094,
2012-06-18, 00:32:04,VALID,917.949,VALID,0,VALID,96.4972,VALID,0,VALID,20.3089,VALID,63,VALID,0.7375,
2012-06-18, 00:33:04,VALID,917.934,VALID,0,VALID,96.4972,VALID,0,VALID,20.3089,VALID,63,VALID,0.258984,
2012-06-18, 00:34:04,VALID,917.957,VALID,0,VALID,96.4591,VALID,0,VALID,20.3284,VALID,63,VALID,0.657812,
2012-06-18, 00:35:04,VALID,917.928,VALID,0,VALID,96.4591,VALID,0,VALID,20.3479,VALID,63,VALID,0.904297,
2012-06-18, 00:36:04,VALID,917.911,VALID,0,VALID,96.4133,VALID,0,VALID,20.3674,VALID,63,VALID,1.05313,
2012-06-18, 00:37:04,VALID,917.893,VALID,0,VALID,96.36,VALID,0,VALID,20.3479,VALID,63,VALID,1.03242,
2012-06-18, 00:38:04,VALID,917.87,VALID,0,VALID,96.3295,VALID,0,VALID,20.3479,VALID,63,VALID,0.786719,
2012-06-18, 00:39:04,VALID,917.831,VALID,0,VALID,96.2914,VALID,0,VALID,20.3479,VALID,63,VALID,0.858594,
2012-06-18, 00:40:04,VALID,917.843,VALID,0,VALID,96.2837,VALID,0,VALID,20.3284,VALID,63,VALID,0.709375,
2012-06-18, 00:41:04,VALID,917.851,VALID,0,VALID,96.2609,VALID,0,VALID,20.3089,VALID,63,VALID,0.701953,
2012-06-18, 00:42:04,VALID,917.823,VALID,0,VALID,96.2837,VALID,0,VALID,20.2894,VALID,63,VALID,0.617578,
2012-06-18, 00:43:04,VALID,917.803,VALID,0,VALID,96.2151,VALID,0,VALID,20.2504,VALID,63,VALID,0.623047,
2012-06-18, 00:44:04,VALID,917.813,VALID,0,VALID,96.3142,VALID,0,VALID,20.2114,VALID,63,VALID,0.941016,
2012-06-18, 00:45:04,VALID,917.795,VALID,0,VALID,96.299,VALID,0,VALID,20.2114,VALID,63,VALID,0.480078,
2012-06-18, 00:46:04,VALID,917.794,VALID,0,VALID,96.2761,VALID,0,VALID,20.1529,VALID,63,VALID,0.687109,
2012-06-18, 00:47:04,VALID,917.795,VALID,0,VALID,96.2914,VALID,0,VALID,20.1139,VALID,63,VALID,0.770703,
2012-06-18, 00:48:04,VALID,917.776,VALID,0,VALID,96.4133,VALID,0,VALID,20.1123,VALID,63,VALID,0.763281,
2012-06-18, 00:49:04,VALID,917.73,VALID,0,VALID,96.421,VALID,0,VALID,20.0944,VALID,63,VALID,0.755078,
2012-06-18, 00:50:04,VALID,917.74,VALID,0,VALID,96.4819,VALID,0,VALID,20.0944,VALID,63,VALID,0.925,
2012-06-18, 00:51:04,VALID,917.698,VALID,0,VALID,96.5277,VALID,0,VALID,20.0733,VALID,63,VALID,0.864453,
2012-06-18, 00:52:04,VALID,917.702,VALID,0,VALID,96.5048,VALID,0,VALID,20.0749,VALID,63,VALID,0.586719,
2012-06-18, 00:53:04,VALID,917.691,VALID,0,VALID,96.4972,VALID,0,VALID,20.0553,VALID,63,VALID,0.446094,
2012-06-18, 00:54:04,VALID,917.66,VALID,0,VALID,96.5048,VALID,0,VALID,20.0148,VALID,63,VALID,0.619531,
2012-06-18, 00:55:04,VALID,917.624,VALID,0,VALID,96.5506,VALID,0,VALID,19.9953,VALID,63,VALID,0.495703,
2012-06-18, 00:56:04,VALID,917.63,VALID,0,VALID,96.5353,VALID,0,VALID,19.9773,VALID,63,VALID,0.0472656,
2012-06-18, 00:57:04,VALID,917.641,VALID,0,VALID,96.5658,VALID,0,VALID,19.9578,VALID,63,VALID,0.262109,
2012-06-18, 00:58:04,VALID,917.629,VALID,0,VALID,96.6115,VALID,0,VALID,19.9173,VALID,63,VALID,0.421875,
2012-06-18, 00:59:04,VALID,917.681,VALID,0,VALID,96.6497,VALID,0,VALID,19.9173,VALID,63,VALID,0.325391,
2012-06-18, 01:00:04,VALID,917.671,VALID,0,VALID,96.6725,VALID,0,VALID,19.9368,VALID,63,VALID,0.0195313,
2012-06-18, 01:01:04,VALID,917.684,VALID,0,VALID,96.703,VALID,0,VALID,19.9578,VALID,63,VALID,0.528125,
2012-06-18, 01:02:04,VALID,917.675,VALID,0,VALID,96.7488,VALID,0,VALID,19.9758,VALID,63,VALID,0.349609,
2012-06-18, 01:03:04,VALID,917.682,VALID,0,VALID,96.7869,VALID,0,VALID,20.0148,VALID,63,VALID,0.358594,
2012-06-18, 01:04:04,VALID,917.647,VALID,0,VALID,96.7869,VALID,0,VALID,20.0343,VALID,63,VALID,0.518359,
2012-06-18, 01:05:04,VALID,917.638,VALID,0,VALID,96.7716,VALID,0,VALID,20.0749,VALID,63,VALID,0.425391,
2012-06-18, 01:06:04,VALID,917.621,VALID,0,VALID,96.7716,VALID,0,VALID,20.0343,VALID,63,VALID,0.724219,
2012-06-18, 01:07:04,VALID,917.633,VALID,0,VALID,96.764,VALID,0,VALID,20.0148,VALID,63,VALID,0.691797,
2012-06-18, 01:08:04,VALID,917.628,VALID,0,VALID,96.7793,VALID,0,VALID,20.0148,VALID,63,VALID,0.715234,
2012-06-18, 01:09:04,VALID,917.631,VALID,0,VALID,96.7869,VALID,0,VALID,20.0148,VALID,63,VALID,0.767578,
2012-06-18, 01:10:04,VALID,917.639,VALID,0,VALID,96.8174,VALID,0,VALID,20.0553,VALID,63,VALID,0.754687,
2012-06-18, 01:11:04,VALID,917.643,VALID,0,VALID,96.8479,VALID,0,VALID,20.0749,VALID,63,VALID,0.354688,
2012-06-18, 01:12:04,VALID,917.627,VALID,0,VALID,96.8707,VALID,0,VALID,20.0733,VALID,63,VALID,0.463672,
2012-06-18, 01:13:04,VALID,917.624,VALID,0,VALID,96.886,VALID,0,VALID,20.0944,VALID,63,VALID,0.348047,
2012-06-18, 01:14:04,VALID,917.605,VALID,0,VALID,96.8784,VALID,0,VALID,20.0944,VALID,63,VALID,0.357422,
2012-06-18, 01:15:04,VALID,917.564,VALID,0,VALID,96.8631,VALID,0,VALID,20.1139,VALID,63,VALID,0.431641,
2012-06-18, 01:16:04,VALID,917.573,VALID,0,VALID,96.886,VALID,0,VALID,20.0733,VALID,63,VALID,0.305469,
2012-06-18, 01:17:04,VALID,917.602,VALID,0,VALID,96.886,VALID,0,VALID,20.0944,VALID,63,VALID,0.623828,
2012-06-18, 01:18:04,VALID,917.599,VALID,0,VALID,96.9012,VALID,0,VALID,20.0928,VALID,63,VALID,0.328516,
2012-06-18, 01:19:04,VALID,917.603,VALID,0,VALID,96.8936,VALID,0,VALID,20.1139,VALID,63,VALID,0.447656,
2012-06-18, 01:20:04,VALID,917.604,VALID,0,VALID,96.9165,VALID,0,VALID,20.1123,VALID,63,VALID,0.764453,
2012-06-18, 01:21:04,VALID,917.599,VALID,0,VALID,96.9012,VALID,0,VALID,20.1139,VALID,63,VALID,0.433594,
2012-06-18, 01:22:04,VALID,917.59,VALID,0,VALID,96.9012,VALID,0,VALID,20.1139,VALID,63,VALID,0.262109,
2012-06-18, 01:23:04,VALID,917.584,VALID,0,VALID,96.886,VALID,0,VALID,20.0944,VALID,63,VALID,0.458203,
2012-06-18, 01:24:04,VALID,917.54,VALID,0,VALID,96.8784,VALID,0,VALID,20.0733,VALID,63,VALID,0.739453,
2012-06-18, 01:25:04,VALID,917.539,VALID,0,VALID,96.8631,VALID,0,VALID,20.0538,VALID,63,VALID,0.292578,
2012-06-18, 01:26:04,VALID,917.503,VALID,0,VALID,96.8403,VALID,0.107441,VALID,20.0148,VALID,63,VALID,0.690234,
2012-06-18, 01:27:04,VALID,917.509,VALID,0,VALID,96.825,VALID,0,VALID,20.0148,VALID,63,VALID,1.00586,
2012-06-18, 01:28:04,VALID,917.525,VALID,0,VALID,96.8098,VALID,0.107441,VALID,19.9743,VALID,63,VALID,0.71875,
2012-06-18, 01:29:04,VALID,917.508,VALID,0,VALID,96.8098,VALID,0,VALID,19.9563,VALID,63,VALID,0.584375,
2012-06-18, 01:30:04,VALID,917.522,VALID,0,VALID,96.7335,VALID,0.107441,VALID,19.9368,VALID,63,VALID,0.557422,
2012-06-18, 01:31:04,VALID,917.513,VALID,0,VALID,96.7716,VALID,0.107441,VALID,19.8963,VALID,63,VALID,0.939844,
2012-06-18, 01:32:04,VALID,917.507,VALID,0,VALID,96.7411,VALID,0.107441,VALID,19.8588,VALID,63,VALID,1.01016,
2012-06-18, 01:33:04,VALID,917.502,VALID,0,VALID,96.7716,VALID,0,VALID,19.8588,VALID,63,VALID,0.684375,
2012-06-18, 01:34:04,VALID,917.504,VALID,0,VALID,96.7716,VALID,0.107441,VALID,19.8378,VALID,63,VALID,1.12148,
2012-06-18, 01:35:04,VALID,917.548,VALID,0,VALID,96.8098,VALID,0.107441,VALID,19.8378,VALID,63,VALID,1.04219,
2012-06-18, 01:36:04,VALID,917.514,VALID,0,VALID,96.825,VALID,0,VALID,19.8588,VALID,63,VALID,0.876953,
2012-06-18, 01:37:04,VALID,917.483,VALID,0,VALID,96.8326,VALID,0.107441,VALID,19.8573,VALID,134,VALID,0.915625,
2012-06-18, 01:38:04,VALID,917.466,VALID,0,VALID,96.8098,VALID,0.107441,VALID,19.8378,VALID,140,VALID,0.695703,
2012-06-18, 01:39:04,VALID,917.442,VALID,0,VALID,96.703,VALID,0,VALID,19.8213,VALID,140,VALID,0.990625,
2012-06-18, 01:40:04,VALID,917.481,VALID,0,VALID,96.6573,VALID,0,VALID,19.7823,VALID,110,VALID,0.790625,
2012-06-18, 01:41:04,VALID,917.469,VALID,0,VALID,96.764,VALID,0,VALID,19.7823,VALID,110,VALID,1.00234,
2012-06-18, 01:42:04,VALID,917.458,VALID,0,VALID,96.8021,VALID,0,VALID,19.7418,VALID,110,VALID,1.18906,
2012-06-18, 01:43:04,VALID,917.454,VALID,0,VALID,96.7869,VALID,0,VALID,19.7613,VALID,110,VALID,0.930859,
2012-06-18, 01:44:04,VALID,917.453,VALID,0,VALID,96.7869,VALID,0,VALID,19.7823,VALID,110,VALID,0.896484,
2012-06-18, 01:45:04,VALID,917.437,VALID,0,VALID,96.825,VALID,0,VALID,19.7823,VALID,110,VALID,0.837109,
2012-06-18, 01:46:04,VALID,917.447,VALID,0,VALID,96.8021,VALID,0,VALID,19.7628,VALID,110,VALID,0.726953,
2012-06-18, 01:47:04,VALID,917.472,VALID,0,VALID,96.8021,VALID,0,VALID,19.7823,VALID,110,VALID,0.3,
2012-06-18, 01:48:04,VALID,917.47,VALID,0,VALID,96.8403,VALID,0,VALID,19.7823,VALID,111,VALID,0.876953,
2012-06-18, 01:49:04,VALID,917.471,VALID,0,VALID,96.825,VALID,0,VALID,19.7613,VALID,123,VALID,0.651563,
2012-06-18, 01:50:04,VALID,917.476,VALID,0,VALID,96.825,VALID,0,VALID,19.7823,VALID,123,VALID,0.527344,
2012-06-18, 01:51:04,VALID,917.455,VALID,0,VALID,96.886,VALID,0,VALID,19.7613,VALID,106,VALID,0.796875,
2012-06-18, 01:52:04,VALID,917.448,VALID,0,VALID,96.8403,VALID,0,VALID,19.7418,VALID,93,VALID,0.720312,
2012-06-18, 01:53:04,VALID,917.468,VALID,0,VALID,96.8784,VALID,0,VALID,19.7628,VALID,93,VALID,0.278125,
2012-06-18, 01:54:04,VALID,917.49,VALID,0,VALID,96.8707,VALID,0,VALID,19.7628,VALID,93,VALID,0,
2012-06-18, 01:55:04,VALID,917.477,VALID,0,VALID,96.8936,VALID,0,VALID,19.7628,VALID,93,VALID,0.441797,
2012-06-18, 01:56:04,VALID,917.505,VALID,0,VALID,96.8936,VALID,0,VALID,19.7628,VALID,93,VALID,0.230078,
2012-06-18, 01:57:04,VALID,917.445,VALID,0,VALID,96.886,VALID,0,VALID,19.7223,VALID,101,VALID,0.551562,
2012-06-18, 01:58:04,VALID,917.466,VALID,0,VALID,96.8631,VALID,0,VALID,19.7238,VALID,119,VALID,0.535156,
2012-06-18, 01:59:04,VALID,917.399,VALID,0,VALID,96.9012,VALID,0,VALID,19.7238,VALID,119,VALID,0.828516,
2012-06-18, 02:00:04,VALID,917.432,VALID,0,VALID,96.8479,VALID,0,VALID,19.6848,VALID,119,VALID,0.611328,
2012-06-18, 02:01:04,VALID,917.373,VALID,0,VALID,96.8479,VALID,0,VALID,19.6653,VALID,119,VALID,0.726563,
2012-06-18, 02:02:04,VALID,917.371,VALID,0,VALID,96.8403,VALID,0,VALID,19.6458,VALID,119,VALID,0.430469,
2012-06-18, 02:03:04,VALID,917.356,VALID,0,VALID,96.9012,VALID,0,VALID,19.6458,VALID,119,VALID,0.403516,
2012-06-18, 02:04:04,VALID,917.367,VALID,0,VALID,96.9165,VALID,0,VALID,19.6458,VALID,119,VALID,0.132813,
2012-06-18, 02:05:04,VALID,917.321,VALID,0,VALID,96.9317,VALID,0,VALID,19.6473,VALID,119,VALID,0,
2012-06-18, 02:06:04,VALID,917.321,VALID,0,VALID,96.9241,VALID,0,VALID,19.6263,VALID,119,VALID,0,
2012-06-18, 02:07:04,VALID,917.295,VALID,0,VALID,96.9394,VALID,0,VALID,19.6053,VALID,119,VALID,0.237109,
2012-06-18, 02:08:04,VALID,917.274,VALID,0,VALID,96.947,VALID,0,VALID,19.6263,VALID,119,VALID,0,
2012-06-18, 02:09:04,VALID,917.234,VALID,0,VALID,96.9622,VALID,0,VALID,19.6263,VALID,119,VALID,0.160156,
2012-06-18, 02:10:04,VALID,917.229,VALID,0,VALID,96.9241,VALID,0,VALID,19.6473,VALID,119,VALID,0,
2012-06-18, 02:11:04,VALID,917.201,VALID,0,VALID,96.8174,VALID,0,VALID,19.6068,VALID,119,VALID,0.327344,
2012-06-18, 02:12:04,VALID,917.141,VALID,0,VALID,96.7259,VALID,0,VALID,19.4898,VALID,119,VALID,0.473828,
2012-06-18, 02:13:04,VALID,917.164,VALID,0,VALID,96.8555,VALID,0,VALID,19.4703,VALID,119,VALID,0.525,
2012-06-18, 02:14:04,VALID,917.168,VALID,0,VALID,96.9241,VALID,0,VALID,19.4898,VALID,119,VALID,0.480469,
2012-06-18, 02:15:04,VALID,917.101,VALID,0,VALID,96.9622,VALID,0,VALID,19.5093,VALID,119,VALID,0.380469,
2012-06-18, 02:16:04,VALID,917.139,VALID,0,VALID,96.9775,VALID,0,VALID,19.5498,VALID,119,VALID,0.141797,
2012-06-18, 02:17:04,VALID,917.126,VALID,0,VALID,97.0003,VALID,0,VALID,19.5498,VALID,119,VALID,0,
2012-06-18, 02:18:04,VALID,917.141,VALID,0,VALID,96.9927,VALID,0,VALID,19.5483,VALID,119,VALID,0,
2012-06-18, 02:19:04,VALID,917.14,VALID,0,VALID,96.9698,VALID,0,VALID,19.5483,VALID,119,VALID,0,
2012-06-18, 02:20:04,VALID,917.107,VALID,0,VALID,96.9546,VALID,0,VALID,19.5483,VALID,119,VALID,0.148438,
2012-06-18, 02:21:04,VALID,917.138,VALID,0,VALID,96.9851,VALID,0,VALID,19.5468,VALID,119,VALID,0.15625,
2012-06-18, 02:22:04,VALID,917.117,VALID,0,VALID,96.9775,VALID,0,VALID,19.5678,VALID,119,VALID,0.441797,
2012-06-18, 02:23:04,VALID,917.103,VALID,0,VALID,97.0003,VALID,0,VALID,19.5873,VALID,119,VALID,0.370313,
2012-06-18, 02:24:04,VALID,917.078,VALID,0,VALID,97.069,VALID,0,VALID,19.6068,VALID,119,VALID,0.279687,
2012-06-18, 02:25:04,VALID,917.105,VALID,0,VALID,97.0232,VALID,0,VALID,19.6068,VALID,119,VALID,0.218359,
2012-06-18, 02:26:04,VALID,917.088,VALID,0,VALID,97.0232,VALID,0,VALID,19.6068,VALID,119,VALID,0,
2012-06-18, 02:27:04,VALID,917.069,VALID,0,VALID,97.0461,VALID,0,VALID,19.6458,VALID,119,VALID,0,
2012-06-18, 02:28:04,VALID,917.098,VALID,0,VALID,96.9851,VALID,0,VALID,19.6263,VALID,119,VALID,0,
2012-06-18, 02:29:04,VALID,917.065,VALID,0,VALID,96.9317,VALID,0,VALID,19.5873,VALID,119,VALID,0,
2012-06-18, 02:30:04,VALID,917.065,VALID,0,VALID,96.9851,VALID,0,VALID,19.5873,VALID,119,VALID,0.232812,
2012-06-18, 02:31:04,VALID,917.047,VALID,0,VALID,96.8555,VALID,0,VALID,19.5873,VALID,119,VALID,0.135156,
2012-06-18, 02:32:04,VALID,917.046,VALID,0,VALID,96.7793,VALID,0,VALID,19.4703,VALID,119,VALID,0.398828,
2012-06-18, 02:33:04,VALID,917.039,VALID,0,VALID,96.9165,VALID,0,VALID,19.4703,VALID,119,VALID,0.255078,
2012-06-18, 02:34:04,VALID,917.015,VALID,0,VALID,96.7564,VALID,0,VALID,19.4118,VALID,119,VALID,0.328125,
2012-06-18, 02:35:04,VALID,917.019,VALID,0,VALID,96.8479,VALID,0,VALID,19.3728,VALID,119,VALID,0.347656,
2012-06-18, 02:36:04,VALID,917.022,VALID,0,VALID,96.9775,VALID,0,VALID,19.3937,VALID,119,VALID,0.404687,
2012-06-18, 02:37:04,VALID,916.993,VALID,0,VALID,96.9622,VALID,0,VALID,19.3923,VALID,119,VALID,0.291406,
2012-06-18, 02:38:04,VALID,917.002,VALID,0,VALID,96.9546,VALID,0,VALID,19.3923,VALID,119,VALID,0.216797,
2012-06-18, 02:39:04,VALID,917.01,VALID,0,VALID,96.947,VALID,0,VALID,19.3923,VALID,119,VALID,0.239453,
2012-06-18, 02:40:04,VALID,916.995,VALID,0,VALID,96.9317,VALID,0,VALID,19.3533,VALID,119,VALID,0.225,
2012-06-18, 02:41:04,VALID,916.975,VALID,0,VALID,97.0003,VALID,0,VALID,19.3533,VALID,119,VALID,0.134766,
2012-06-18, 02:42:04,VALID,916.977,VALID,0,VALID,97.0918,VALID,0,VALID,19.3728,VALID,119,VALID,0,
2012-06-18, 02:43:04,VALID,916.976,VALID,0,VALID,97.1452,VALID,0,VALID,19.4103,VALID,119,VALID,0,
2012-06-18, 02:44:04,VALID,916.99,VALID,0,VALID,97.0918,VALID,0,VALID,19.4508,VALID,119,VALID,0,
2012-06-18, 02:45:04,VALID,916.981,VALID,0,VALID,97.069,VALID,0,VALID,19.4313,VALID,119,VALID,0,
2012-06-18, 02:46:04,VALID,916.98,VALID,0,VALID,97.0308,VALID,0,VALID,19.4118,VALID,119,VALID,0.276172,
2012-06-18, 02:47:04,VALID,916.964,VALID,0,VALID,97.0232,VALID,0,VALID,19.3713,VALID,119,VALID,0.314453,
2012-06-18, 02:48:04,VALID,916.99,VALID,0,VALID,97.0385,VALID,0,VALID,19.3713,VALID,119,VALID,0.514453,
2012-06-18, 02:49:04,VALID,916.954,VALID,0,VALID,97.008,VALID,0,VALID,19.3533,VALID,119,VALID,0.548437,
2012-06-18, 02:50:04,VALID,916.971,VALID,0,VALID,96.9775,VALID,0,VALID,19.2948,VALID,119,VALID,0.598437,
2012-06-18, 02:51:04,VALID,916.973,VALID,0,VALID,96.9775,VALID,0,VALID,19.2558,VALID,119,VALID,0.585156,
2012-06-18, 02:52:04,VALID,916.964,VALID,0,VALID,97.0232,VALID,0,VALID,19.2363,VALID,119,VALID,0.364062,
2012-06-18, 02:53:04,VALID,916.983,VALID,0,VALID,97.0537,VALID,0,VALID,19.2363,VALID,119,VALID,0.308594,
2012-06-18, 02:54:04,VALID,916.95,VALID,0,VALID,97.0766,VALID,0,VALID,19.2558,VALID,119,VALID,0.202734,
2012-06-18, 02:55:04,VALID,916.957,VALID,0,VALID,96.9698,VALID,0,VALID,19.1568,VALID,119,VALID,0.544922,
2012-06-18, 02:56:04,VALID,916.948,VALID,0,VALID,97.0842,VALID,0,VALID,19.1763,VALID,119,VALID,0.553125,
2012-06-18, 02:57:04,VALID,916.915,VALID,0,VALID,97.1452,VALID,0,VALID,19.2348,VALID,119,VALID,0.617578,
2012-06-18, 02:58:04,VALID,916.914,VALID,0,VALID,97.1071,VALID,0,VALID,19.2153,VALID,119,VALID,0.673437,
2012-06-18, 02:59:04,VALID,916.928,VALID,0,VALID,97.0842,VALID,0,VALID,19.2168,VALID,119,VALID,0.621875,
2012-06-18, 03:00:04,VALID,916.942,VALID,0,VALID,97.0918,VALID,0,VALID,19.1763,VALID,119,VALID,0.825,
2012-06-18, 03:01:04,VALID,916.959,VALID,0,VALID,97.1528,VALID,0,VALID,19.2363,VALID,119,VALID,0.829687,
2012-06-18, 03:02:04,VALID,916.972,VALID,0,VALID,97.1452,VALID,0,VALID,19.1958,VALID,132,VALID,0.635156,
2012-06-18, 03:03:04,VALID,916.947,VALID,0,VALID,97.1376,VALID,0.107441,VALID,19.1973,VALID,133,VALID,0.640625,
2012-06-18, 03:04:04,VALID,916.966,VALID,0,VALID,97.1376,VALID,0,VALID,19.1373,VALID,133,VALID,0.931641,
2012-06-18, 03:05:04,VALID,916.925,VALID,0,VALID,97.1299,VALID,0,VALID,19.1583,VALID,133,VALID,0.730469,
2012-06-18, 03:06:04,VALID,916.888,VALID,0,VALID,97.1604,VALID,0,VALID,19.1778,VALID,133,VALID,0.641406,
2012-06-18, 03:07:04,VALID,916.886,VALID,0,VALID,97.1681,VALID,0,VALID,19.1568,VALID,133,VALID,0.719531,
2012-06-18, 03:08:04,VALID,916.852,VALID,0,VALID,97.1909,VALID,0,VALID,19.1778,VALID,133,VALID,1.07187,
2012-06-18, 03:09:04,VALID,916.853,VALID,0,VALID,97.1528,VALID,0,VALID,19.1402,VALID,133,VALID,0.773438,
2012-06-18, 03:10:04,VALID,916.843,VALID,0,VALID,97.1452,VALID,0,VALID,19.1207,VALID,133,VALID,1.25,
2012-06-18, 03:11:04,VALID,916.853,VALID,0,VALID,97.1986,VALID,0,VALID,19.1402,VALID,123,VALID,1.25586,
2012-06-18, 03:12:04,VALID,916.89,VALID,0,VALID,97.2138,VALID,0,VALID,19.1207,VALID,123,VALID,1.29922,
2012-06-18, 03:13:04,VALID,916.881,VALID,0,VALID,97.2595,VALID,0,VALID,19.1597,VALID,128,VALID,1.24023,
2012-06-18, 03:14:04,VALID,916.884,VALID,0,VALID,97.2519,VALID,0,VALID,19.1597,VALID,128,VALID,1.50469,
2012-06-18, 03:15:04,VALID,916.911,VALID,0,VALID,97.2748,VALID,0,VALID,19.1792,VALID,128,VALID,0.724609,
2012-06-18, 03:16:04,VALID,916.889,VALID,0,VALID,97.29,VALID,0,VALID,19.2182,VALID,126,VALID,0.970703,
2012-06-18, 03:17:04,VALID,916.884,VALID,0,VALID,97.3053,VALID,0,VALID,19.2182,VALID,126,VALID,0.951172,
2012-06-18, 03:18:04,VALID,916.897,VALID,0,VALID,97.29,VALID,0,VALID,19.2168,VALID,126,VALID,0.821484,
2012-06-18, 03:19:04,VALID,916.887,VALID,0,VALID,97.3129,VALID,0,VALID,19.2363,VALID,126,VALID,0.916797,
2012-06-18, 03:20:04,VALID,916.878,VALID,0,VALID,97.29,VALID,0,VALID,19.2572,VALID,126,VALID,0.835547,
2012-06-18, 03:21:04,VALID,916.894,VALID,0,VALID,97.29,VALID,0,VALID,19.2363,VALID,130,VALID,0.757813,
2012-06-18, 03:22:04,VALID,916.887,VALID,0,VALID,97.3281,VALID,0,VALID,19.2558,VALID,149,VALID,1.05469,
2012-06-18, 03:23:04,VALID,916.876,VALID,0,VALID,97.3205,VALID,0,VALID,19.2767,VALID,145,VALID,0.771094,
2012-06-18, 03:24:04,VALID,916.917,VALID,0,VALID,97.3053,VALID,0,VALID,19.2962,VALID,145,VALID,1.10234,
2012-06-18, 03:25:04,VALID,916.892,VALID,0,VALID,97.2977,VALID,0,VALID,19.2962,VALID,156,VALID,0.514453,
2012-06-18, 03:26:04,VALID,916.872,VALID,0,VALID,97.3205,VALID,0,VALID,19.2767,VALID,161,VALID,1.30703,
2012-06-18, 03:27:04,VALID,916.888,VALID,0,VALID,97.3129,VALID,0,VALID,19.2962,VALID,161,VALID,1.50195,
2012-06-18, 03:28:04,VALID,916.879,VALID,0,VALID,97.29,VALID,0,VALID,19.2962,VALID,162,VALID,1.26914,
2012-06-18, 03:29:04,VALID,916.854,VALID,0,VALID,97.3129,VALID,0,VALID,19.2962,VALID,175,VALID,1,
2012-06-18, 03:30:04,VALID,916.842,VALID,0,VALID,97.3129,VALID,0,VALID,19.2753,VALID,175,VALID,0.189063,
2012-06-18, 03:31:04,VALID,916.826,VALID,0,VALID,97.3129,VALID,0,VALID,19.2962,VALID,175,VALID,0.369922,
2012-06-18, 03:32:04,VALID,916.825,VALID,0,VALID,97.3129,VALID,0,VALID,19.2767,VALID,121,VALID,0.796094,
2012-06-18, 03:33:04,VALID,916.811,VALID,0,VALID,97.3281,VALID,0,VALID,19.2558,VALID,140,VALID,0.994531,
2012-06-18, 03:34:04,VALID,916.767,VALID,0,VALID,97.3129,VALID,0,VALID,19.2572,VALID,160,VALID,0.925,
2012-06-18, 03:35:04,VALID,916.788,VALID,0,VALID,97.3129,VALID,0,VALID,19.2168,VALID,147,VALID,1.17344,
2012-06-18, 03:36:04,VALID,916.785,VALID,0,VALID,97.3129,VALID,0,VALID,19.2182,VALID,165,VALID,1.25898,
2012-06-18, 03:37:04,VALID,916.763,VALID,0,VALID,97.3281,VALID,0,VALID,19.1973,VALID,158,VALID,0.662891,
2012-06-18, 03:38:04,VALID,916.77,VALID,0,VALID,97.3129,VALID,0,VALID,19.1778,VALID,170,VALID,0.872266,
2012-06-18, 03:39:04,VALID,916.773,VALID,0,VALID,97.3205,VALID,0,VALID,19.1568,VALID,143,VALID,1.03984,
2012-06-18, 03:40:04,VALID,916.72,VALID,0,VALID,97.3434,VALID,0,VALID,19.1763,VALID,162,VALID,1.79531,
2012-06-18, 03:41:04,VALID,916.737,VALID,0,VALID,97.3586,VALID,0,VALID,19.1568,VALID,157,VALID,0.65625,
2012-06-18, 03:42:04,VALID,916.712,VALID,0,VALID,97.3434,VALID,0,VALID,19.1568,VALID,132,VALID,0.635938,
2012-06-18, 03:43:04,VALID,916.704,VALID,0,VALID,97.3663,VALID,0,VALID,19.1778,VALID,132,VALID,0.514453,
2012-06-18, 03:44:04,VALID,916.704,VALID,0,VALID,97.3434,VALID,0,VALID,19.1373,VALID,134,VALID,0.790234,
2012-06-18, 03:45:04,VALID,916.747,VALID,0,VALID,97.3663,VALID,0,VALID,19.1583,VALID,134,VALID,0.258203,
2012-06-18, 03:46:04,VALID,916.751,VALID,0,VALID,97.3663,VALID,0,VALID,19.1373,VALID,136,VALID,0.873828,